Regional Weather Roundup
Issued by NWS Raleigh/Durham, NC

Home | Current Version | Previous Version | Text Only | Print | Product List | Glossary On
Versions: 1 2 3 4 5 6 7 8 9 10 11 12 13 14 15 16 17 18 19 20 21 22 23 24 25 26 27 28 29 30 31 32 33 34 35 36 37 38 39 40 41 42 43 44 45 46 47 48 49 50
000
ASUS42 KRAH 221810
RWRRAH
NORTH CAROLINA WEATHER ROUNDUP
NATIONAL WEATHER SERVICE RALEIGH NC
100 PM EST WED FEB 22 2017

NOTE: "FAIR" INDICATES FEW OR NO CLOUDS BELOW 12,000 FEET WITH NO
SIGNIFICANT WEATHER AND/OR OBSTRUCTIONS TO VISIBILITY.

NCZ001-053-055-056-065-067-221900-
WESTERN NORTH CAROLINA

CITY           SKY/WX    TMP DP  RH WIND       PRES   REMARKS
ASHEVILLE      CLOUDY    53  50  89 CALM      29.99F VSB 1
JEFFERSON      DRIZZLE   49  49  99 CALM      30.00F
MORGANTON      CLOUDY    52  52 100 CALM      30.04F FOG
HICKORY        CLOUDY    54  52  93 CALM      29.99F FOG
RUTHERFORDTON  CLOUDY    55  54  97 NW6       29.99F
MOUNT AIRY     DRIZZLE   54  52  93 CALM      30.02F
BOONE          DRIZZLE   52  52 100 CALM      30.00F
$$

NCZ021-022-025-041-071-084-088-221900-
CENTRAL NORTH CAROLINA

CITY           SKY/WX    TMP DP  RH WIND       PRES   REMARKS
CHARLOTTE      CLOUDY    64  53  67 CALM      29.97F
GREENSBORO     CLOUDY    58  54  86 N3        29.98F
WINSTON-SALEM  CLOUDY    55  50  83 CALM      30.00F
RALEIGH-DURHAM CLOUDY    68  52  56 S6        29.98F
FORT BRAGG     MOSUNNY   73  51  45 SE6       29.95F
FAYETTEVILLE   PTSUNNY   74  54  49 SE9       29.95F
BURLINGTON     PTSUNNY   64  52  64 CALM      29.97F
LAURINBURG     PTSUNNY   73  53  49 S12       29.95F
$$

NCZ011-015-027-028-043-044-047-080-103-221900-
NORTHEASTERN NORTH CAROLINA

CITY           SKY/WX    TMP DP  RH WIND       PRES   REMARKS
ROCKY MT-WILSO CLOUDY    70  51  51 SW5       29.97F
GREENVILLE     MOSUNNY   72  45  37 SW5       30.00F
WASHINGTON     SUNNY     71  48  45 E6        29.98F
ELIZABETH CITY CLOUDY    68  50  52 SW7       29.99F
MANTEO         MOSUNNY   68  50  52 S12       30.00F
CAPE HATTERAS  MOSUNNY   71  51  49 SE9       30.00F
$$

NCZ078-087-090-091-093-098-101-221900-
SOUTHEASTERN NORTH CAROLINA

CITY           SKY/WX    TMP DP  RH WIND       PRES   REMARKS
LUMBERTON      MOSUNNY   74  51  44 SE8       29.94F
GOLDSBORO      MOSUNNY   73  50  43 S8        29.95F
KINSTON        SUNNY     72  45  37 S3        29.98F
KENANSVILLE    NOT AVBL
NEW BERN       PTSUNNY   71  51  49 VRB6      29.98F
CHERRY POINT   PTSUNNY   73  51  46 S10       29.98F
BEAUFORT       SUNNY     71  53  52 S9        29.98F
JACKSONVILLE   PTSUNNY   71  56  58 S16G22    29.97F
WILMINGTON     SUNNY     71  55  56 SE14G20   29.97F
$$




USA.gov is the U.S. government's official web portal to all federal, state and local government web resources and services.